Location: Bacharowice
(49.9333°N, 19.5833°E)
Time: 23:55:11
(UTC+00:00)

USA 306 - Pass Details

Date: 11 May 2021
Orbit: 565 x 575 km, 54.0° (Epoch: 11 May)

Event Time Altitude Azimuth Distance (km) Brightness Sun altitude
Rises 20:42:47 0° 294° (WNW) 2,774 7.3 -17.3°
Reaches altitude 10° 20:45:09 10° 287° (WNW) 1,875 6.1 -17.5°
Maximum altitude 20:49:05 38° 219° (SW) 887 3.6 -17.8°
Enters shadow 20:49:59 33° 190° (S) 962 3.6 -17.9°
